map of RTM home
RTM - Airport
Location
City:  Rotterdam, Zuid-Holland (South Holland), Netherlands
Name:Rotterdam The Hague Airport
ICAO:EHRD
IATA:RTM

Details
Type:Airport (Aerodrome, Airfield)
Use:Public/Civil, International (customs port of entry)
Latitude:5157'25"N (51.956944)
Longitude:426'14"E (4.437222)
Datum:WGS 1984
Elevation:-15 ft (-4 m)
Variation:1.19E (WMM2015 magnetic declination)
0.14 annual change
Runways:1
Longest:7218 × 148 ft (2200 × 45 m), paved

Time
Time Zone:UTC+1 (DST+2)
Local Time:

Weather
METAR:EHRD 110055Z AUTO 30008KT 9999 SCT043 05/01 Q1024 NOSIG
TAF:EHRD 102306Z 1100/1206 32010KT 9999 SCT030 PROB30
TEMPO 1100/1106 7000 -SHRA FEW025TCU
BECMG 1115/1118 VRB03KT PROB30 1203/1206 7000 MIFG

Related Locations
Nearby:
Farthest:CHT: 11866 mi / 19096 km
Waitangi [Tuuta], CIT, NZ

Find:

   beyond  
but within

Other Information
Maps:
NOTAMs:
Links:
Sources:

  
  • flag of Netherlands
  • flag of Zuid-Holland (South Holland)
  • flag of Rotterdam
  

Sectional Chart

Flight Planning
at skyvector.com

Satellite Image

Google Maps Satellite view

 

Copyright © 2004-2018 Karl L. Swartz. All rights reserved.
The Great Circle Mapper name and logo are trademarks of the Great Circle Mapper.
All other trademarks mentioned herein belong to their respective owners.
Please see credits for attibutions and further copyright information.

  Follow gcmap on Facebook Follow gcmap on Twitter Follow gcmap on Google+ GCmap on LinkedIn

hCard Microformat

Geo Microformat